When you browse on this site, cookies collect data to enhance your experience and personalize the content and advertising you see.
Visit our Privacy Policy to learn more. By continuing to use the site, you agree to this use of cookies and data.
  • în România
  • Lista ţărilor
  • Pe 7 zile
  • Temperatura apei
  • Meteo pe hartă
  • Widget-uri
  • user-avatar
    Intrare

    Meteo pe oră la Nottingham

    Astăzi, 29 Mai, Vineri

    Timp Temperatura Precipitaţii Vânt Presiune Umiditate
    00:00 +10°C° 0 mm 2 m/s 767 mmHg 82%
    01:00 +10°C° 0 mm 2 m/s 767 mmHg 80%
    02:00 +10°C° 0 mm 1 m/s 767 mmHg 77%
    03:00 +9°C° 0 mm 1 m/s 767 mmHg 75%
    04:00 +10°C° 0 mm 1 m/s 767 mmHg 74%
    05:00 +11°C° 0 mm 1 m/s 767 mmHg 72%
    06:00 +12°C° 0 mm 2 m/s 767 mmHg 71%
    07:00 +13°C° 0 mm 2 m/s 767 mmHg 66%
    08:00 +15°C° 0 mm 2 m/s 766 mmHg 61%
    09:00 +17°C° 0 mm 2 m/s 766 mmHg 57%
    10:00 +18°C° 0 mm 3 m/s 766 mmHg 55%
    11:00 +19°C° 0 mm 3 m/s 766 mmHg 54%
    12:00 +20°C° 0 mm 3 m/s 766 mmHg 53%
    13:00 +20°C° 0 mm 3 m/s 765 mmHg 55%
    14:00 +20°C° 0 mm 3 m/s 765 mmHg 57%
    15:00 +21°C° 0 mm 3 m/s 764 mmHg 59%
    16:00 +20°C° 0 mm 3 m/s 764 mmHg 63%
    17:00 +19°C° 0 mm 3 m/s 764 mmHg 68%
    18:00 +18°C° 0 mm 3 m/s 764 mmHg 72%
    19:00 +16°C° 0 mm 3 m/s 764 mmHg 77%
    20:00 +13°C° 0 mm 3 m/s 764 mmHg 81%
    21:00 +11°C° 0 mm 3 m/s 764 mmHg 85%
    22:00 +10°C° 0 mm 3 m/s 764 mmHg 85%
    23:00 +9°C° 0 mm 2 m/s 764 mmHg 85%

    Mâine, 30 Mai, Sâmbătă

    Timp Temperatura Precipitaţii Vânt Presiune Umiditate
    00:00 +8°C° 0 mm 2 m/s 764 mmHg 85%
    01:00 +8°C° 0 mm 2 m/s 764 mmHg 85%
    02:00 +7°C° 0 mm 2 m/s 764 mmHg 85%
    03:00 +7°C° 0 mm 1 m/s 764 mmHg 85%
    04:00 +7°C° 0 mm 2 m/s 764 mmHg 84%
    05:00 +8°C° 0 mm 2 m/s 764 mmHg 82%
    06:00 +9°C° 0 mm 2 m/s 764 mmHg 81%
    07:00 +12°C° 0 mm 2 m/s 764 mmHg 78%
    08:00 +13°C° 0 mm 3 m/s 764 mmHg 74%
    09:00 +16°C° 0 mm 3 m/s 764 mmHg 71%
    10:00 +18°C° 0 mm 3 m/s 763 mmHg 68%
    11:00 +19°C° 0 mm 4 m/s 763 mmHg 65%
    12:00 +20°C° 0 mm 4 m/s 763 mmHg 63%
    13:00 +20°C° 0.1 mm 4 m/s 763 mmHg 64%
    14:00 +20°C° 0.1 mm 4 m/s 763 mmHg 65%
    15:00 +20°C° 0.1 mm 4 m/s 763 mmHg 66%
    16:00 +20°C° 0 mm 4 m/s 762 mmHg 68%
    17:00 +19°C° 0 mm 5 m/s 762 mmHg 70%
    18:00 +17°C° 0 mm 5 m/s 762 mmHg 72%
    19:00 +15°C° 0 mm 4 m/s 762 mmHg 78%
    20:00 +13°C° 0 mm 4 m/s 763 mmHg 84%
    21:00 +11°C° 0 mm 3 m/s 763 mmHg 90%
    22:00 +10°C° 0 mm 3 m/s 763 mmHg 91%
    23:00 +9°C° 0 mm 3 m/s 763 mmHg 92%

    Poimâine, 31 Mai, Duminică

    Timp Temperatura Precipitaţii Vânt Presiune Umiditate
    00:00 +9°C° 0 mm 2 m/s 763 mmHg 93%
    01:00 +8°C° 0 mm 2 m/s 764 mmHg 93%
    02:00 +8°C° 0 mm 2 m/s 764 mmHg 93%
    03:00 +8°C° 0 mm 2 m/s 764 mmHg 93%
    04:00 +9°C° 0 mm 3 m/s 764 mmHg 91%
    05:00 +10°C° 0 mm 3 m/s 764 mmHg 90%
    06:00 +11°C° 0 mm 3 m/s 764 mmHg 88%
    07:00 +13°C° 0 mm 3 m/s 764 mmHg 82%
    08:00 +14°C° 0 mm 4 m/s 764 mmHg 77%
    09:00 +17°C° 0 mm 4 m/s 764 mmHg 72%
    10:00 +18°C° 0 mm 4 m/s 764 mmHg 68%
    11:00 +20°C° 0 mm 4 m/s 764 mmHg 64%
    12:00 +21°C° 0 mm 4 m/s 764 mmHg 60%
    13:00 +21°C° 0.1 mm 4 m/s 764 mmHg 61%
    14:00 +21°C° 0.1 mm 4 m/s 764 mmHg 62%
    15:00 +21°C° 0.1 mm 5 m/s 764 mmHg 63%
    16:00 +20°C° 0.1 mm 5 m/s 764 mmHg 66%
    17:00 +19°C° 0.1 mm 5 m/s 764 mmHg 68%
    18:00 +17°C° 0.1 mm 5 m/s 764 mmHg 71%
    19:00 +15°C° 0 mm 4 m/s 764 mmHg 77%
    20:00 +13°C° 0 mm 3 m/s 764 mmHg 82%
    21:00 +11°C° 0 mm 3 m/s 765 mmHg 88%
    22:00 +10°C° 0 mm 3 m/s 765 mmHg 90%
    23:00 +10°C° 0 mm 2 m/s 765 mmHg 91%

    1 Iunie, Luni

    Timp Temperatura Precipitaţii Vânt Presiune Umiditate
    00:00 +9°C° 0 mm 2 m/s 765 mmHg 93%
    01:00 +9°C° 0 mm 2 m/s 765 mmHg 93%
    02:00 +8°C° 0 mm 2 m/s 765 mmHg 93%
    03:00 +8°C° 0 mm 2 m/s 764 mmHg 94%
    04:00 +9°C° 0 mm 2 m/s 764 mmHg 91%
    05:00 +10°C° 0 mm 3 m/s 764 mmHg 89%
    06:00 +11°C° 0 mm 3 m/s 765 mmHg 87%
    07:00 +13°C° 0 mm 4 m/s 764 mmHg 82%
    08:00 +14°C° 0 mm 4 m/s 764 mmHg 77%
    09:00 +17°C° 0 mm 4 m/s 764 mmHg 72%
    10:00 +18°C° 0 mm 4 m/s 764 mmHg 69%
    11:00 +19°C° 0 mm 5 m/s 764 mmHg 65%
    12:00 +20°C° 0 mm 5 m/s 764 mmHg 61%
    13:00 +20°C° 0 mm 5 m/s 764 mmHg 59%
    14:00 +20°C° 0 mm 5 m/s 764 mmHg 57%
    15:00 +20°C° 0 mm 5 m/s 764 mmHg 55%
    16:00 +19°C° 0 mm 5 m/s 763 mmHg 60%
    17:00 +18°C° 0 mm 4 m/s 763 mmHg 64%
    18:00 +17°C° 0 mm 4 m/s 763 mmHg 68%
    19:00 +16°C° 0 mm 3 m/s 763 mmHg 75%
    20:00 +13°C° 0 mm 3 m/s 764 mmHg 81%
    21:00 +11°C° 0 mm 3 m/s 764 mmHg 87%
    22:00 +11°C° 0 mm 3 m/s 764 mmHg 89%
    23:00 +10°C° 0 mm 3 m/s 764 mmHg 90%

    2 Iunie, Marţi

    Timp Temperatura Precipitaţii Vânt Presiune Umiditate
    00:00 +9°C° 0 mm 3 m/s 763 mmHg 92%
    01:00 +9°C° 0 mm 3 m/s 763 mmHg 92%
    02:00 +9°C° 0 mm 2 m/s 763 mmHg 92%
    03:00 +9°C° 0 mm 2 m/s 763 mmHg 92%
    04:00 +10°C° 0 mm 3 m/s 762 mmHg 90%
    05:00 +10°C° 0 mm 3 m/s 762 mmHg 88%
    06:00 +11°C° 0 mm 3 m/s 762 mmHg 86%
    07:00 +13°C° 0 mm 4 m/s 762 mmHg 80%
    08:00 +14°C° 0 mm 4 m/s 762 mmHg 73%
    09:00 +17°C° 0 mm 4 m/s 762 mmHg 67%
    10:00 +18°C° 0 mm 4 m/s 761 mmHg 65%
    11:00 +19°C° 0 mm 4 m/s 761 mmHg 62%
    12:00 +19°C° 0 mm 4 m/s 761 mmHg 59%
    13:00 +19°C° 0 mm 4 m/s 760 mmHg 59%
    14:00 +20°C° 0 mm 4 m/s 760 mmHg 59%
    15:00 +20°C° 0 mm 4 m/s 759 mmHg 59%
    16:00 +19°C° 0 mm 3 m/s 759 mmHg 62%
    17:00 +18°C° 0 mm 3 m/s 759 mmHg 66%
    18:00 +18°C° 0 mm 3 m/s 759 mmHg 69%
    19:00 +16°C° 0 mm 3 m/s 759 mmHg 74%
    20:00 +14°C° 0 mm 2 m/s 759 mmHg 80%
    21:00 +12°C° 0 mm 2 m/s 759 mmHg 85%
    22:00 +10°C° 0 mm 2 m/s 758 mmHg 85%
    23:00 +10°C° 0 mm 2 m/s 758 mmHg 86%

    3 Iunie, Miercuri

    Timp Temperatura Precipitaţii Vânt Presiune Umiditate
    00:00 +9°C° 0 mm 2 m/s 758 mmHg 87%
    01:00 +9°C° 0 mm 2 m/s 758 mmHg 87%
    02:00 +9°C° 0 mm 2 m/s 757 mmHg 88%
    03:00 +8°C° 0 mm 2 m/s 757 mmHg 88%
    04:00 +9°C° 0 mm 3 m/s 757 mmHg 87%
    05:00 +10°C° 0 mm 3 m/s 757 mmHg 85%
    06:00 +11°C° 0 mm 4 m/s 757 mmHg 83%
    07:00 +12°C° 0 mm 4 m/s 757 mmHg 78%
    08:00 +14°C° 0 mm 5 m/s 757 mmHg 73%
    09:00 +15°C° 0 mm 5 m/s 757 mmHg 68%
    10:00 +16°C° 0 mm 5 m/s 756 mmHg 65%
    11:00 +17°C° 0 mm 5 m/s 756 mmHg 62%
    12:00 +19°C° 0 mm 5 m/s 756 mmHg 59%
    13:00 +17°C° 0 mm 5 m/s 756 mmHg 61%
    14:00 +17°C° 0 mm 5 m/s 756 mmHg 63%
    15:00 +17°C° 0 mm 5 m/s 755 mmHg 66%
    16:00 +18°C° 0 mm 4 m/s 755 mmHg 69%
    17:00 +17°C° 0 mm 4 m/s 755 mmHg 72%
    18:00 +15°C° 0 mm 4 m/s 755 mmHg 75%
    19:00 +13°C° 0 mm 3 m/s 755 mmHg 80%
    20:00 +13°C° 0 mm 2 m/s 755 mmHg 86%
    21:00 +10°C° 0 mm 2 m/s 755 mmHg 92%
    22:00 +9°C° 0 mm 2 m/s 754 mmHg 92%
    23:00 +9°C° 0 mm 2 m/s 754 mmHg 92%
    Arată mai mult